sat.trackr.live / text

‹ back to catalog

QIANFAN-66

NORAD 62796 · 2025-016M

PAYLOAD ACTIVE UNKNOWN

§ Identity

Operator
Country
PRC
Launch date
2025-01-23
Launch site
TAISC
Launch vehicle
Mass (kg)
RCS (m²)

External: N2YO · Heavens-Above · Gunter

§ Orbital elements

Epoch: 2026-09-22T20:45:04.008672Z

Period
106.59 min
Inclination
88.9676°
Eccentricity
0.0013524
Mean motion
13.51020030 rev/d
Perigee alt
1,058.4 km
Apogee alt
1,078.6 km
Semi-major
7,446.6 km
B*
7.2955e-5
RAAN
73.5358°
Arg perigee
233.8474°
Mean anomaly
126.1426°
Rev number
8,565

§ Raw data

QIANFAN-661 62796U 25016M   26265.86462973  .00000059  00000+0  72955-4 0  99952 62796  88.9676  73.5358 0013524 233.8474 126.1426 13.51020030 85654

JSON: /api/v1/satellites/62796 · /tle

For live sub-satellite position, see the globe view (requires WebGL).

§ Visibility from observer

Set your observer location to see the next 7 days of passes ≥ 10°. The values pass through the URL so the page stays shareable.

No JS? Fill the form by hand. The geolocation button needs JavaScript.